Location: Zürich
(47.3769°N, 8.5417°E)
Time: 10:44:45
(UTC+02:00)

ISS - Pass Details

Date: 21 May 2021
Orbit: 417 x 422 km, 51.6° (Epoch: 13 June)

Event Time Altitude Azimuth Distance (km) Brightness Sun altitude
Rises 22:06:46 0° 270° (W) 2,360 0.8 -9.3°
Reaches altitude 10° 22:08:56 10° 277° (W) 1,499 -0.1 -9.5°
Maximum altitude 22:12:10 42° 350° (N) 607 -2.5 -9.9°
Drops below altitude 10° 22:15:24 10° 64° (ENE) 1,504 -1.1 -10.3°
Sets 22:17:34 0° 71° (ENE) 2,370 -0.2 -10.6°
